DW9665 Sarajevo BA current weather conditions

sailwx.info

Wind from 270

Air temperature -0.6° C
Dewpoint -2.8° C

Last reported at 2015-Jan-28 00:32 UTC.
Time now 2015-Jan-28 01:24 UTC

Location: N 43°50' E 018°21'.
View on Google Maps.

See reports from other nearby stations

  
Tides and Currents Weather Stations Pressure Air Temp Water Temp Dewpoint Dewpoint Depression Visibility Wind Speed Wind Dir Waves Ship Positions
date/time (UTC)wind fromknots sea level pressurealtimeterstation pressurevisibilityair tempwater tempwave heightnotes
2015-Jan-28 00:32 270 -0.6
2015-Jan-28 00:17 270 1 gusting 4 -0.6
2015-Jan-28 00:02 270 1 gusting 5 -0.6
2015-Jan-27 23:47 292 2 gusting 3 -0.0
2015-Jan-27 23:32 292 1 gusting 4 -0.0
2015-Jan-27 23:17 270 1 gusting 5 -0.0
2015-Jan-27 23:02 270 2 gusting 5 -0.0
2015-Jan-27 22:47 292 2 gusting 5 -0.0
2015-Jan-27 22:32 270 1 gusting 3 -0.0
2015-Jan-27 22:17 180 2 gusting 5 -0.0
2015-Jan-27 22:02 270 1 gusting 4 -0.0
2015-Jan-27 21:47 270 3 gusting 5 -0.0
2015-Jan-27 21:32 270 4 gusting 5 -0.0
2015-Jan-27 21:17 270 3 gusting 5 -0.0
2015-Jan-27 21:02 270 0 gusting 2 0.6
2015-Jan-27 20:47 270 0 gusting 3 0.6
2015-Jan-27 20:32 292 0 gusting 3 0.6
2015-Jan-27 20:17 180 1 gusting 5 0.6
2015-Jan-27 20:02 270 0.6
2015-Jan-27 19:47 180 0.6
2015-Jan-27 19:32 112 1 gusting 3 0.6
2015-Jan-27 19:17 270 3 gusting 3 0.6
2015-Jan-27 19:02 270 1 gusting 2 0.6
2015-Jan-27 18:47 158 0.6
2015-Jan-27 18:32 292 0.6
2015-Jan-27 18:17 270 2 gusting 4 0.6
2015-Jan-27 18:02 292 1 gusting 3 0.6
2015-Jan-27 17:47 292 1 gusting 5 0.6
2015-Jan-27 17:32 270 2 gusting 4 0.6
2015-Jan-27 17:17 270 1 gusting 5 0.6
2015-Jan-27 17:02 292 2 gusting 4 0.6
2015-Jan-27 16:47 270 0.6
2015-Jan-27 16:32 270 1 gusting 5 0.6
2015-Jan-27 16:17 292 0 gusting 5 1.1
2015-Jan-27 16:02 292 1 gusting 0 1.1
2015-Jan-27 15:47 022 1.1
2015-Jan-27 15:32 068 1.1
2015-Jan-27 15:17 180 0 gusting 4 1.1
2015-Jan-27 15:02 180 1.1
2015-Jan-27 14:47 270 0 gusting 5 1.1
2015-Jan-27 14:32 068 1.1
2015-Jan-27 14:17 338 0 gusting 5 1.1
2015-Jan-27 14:02 292 3 gusting 5 1.1
2015-Jan-27 13:47 270 1.1
2015-Jan-27 13:32 135 1.1
2015-Jan-27 13:17 270 0 gusting 6 1.1
2015-Jan-27 13:02 315 4 gusting 5 1.1
2015-Jan-27 12:47 338 3 gusting 6 1.1
2015-Jan-27 12:32 292 1 gusting 5 1.7
2015-Jan-27 12:17 292 3 gusting 3 1.1
2015-Jan-27 12:02 180 1.1
2015-Jan-27 11:47 270 0 gusting 2 1.1
2015-Jan-27 11:32 180 1.1
2015-Jan-27 11:17 180 1.1
2015-Jan-27 11:02 180 1.1
2015-Jan-27 10:47 180 1.1
2015-Jan-27 10:32 180 2 gusting 3 1.1
2015-Jan-27 10:17 270 1 gusting 6 0.6
2015-Jan-27 10:02 292 1 gusting 6 0.6
2015-Jan-27 09:47 292 1 gusting 3 0.6
2015-Jan-27 09:32 180 0 gusting 3 0.6
2015-Jan-27 09:17 292 2 gusting 3 0.6
2015-Jan-27 09:02 180 0.6
2015-Jan-27 08:47 270 0 gusting 3 0.6
2015-Jan-27 08:32 315 1 gusting 3 0.6
2015-Jan-27 08:17 338 1 gusting 3 0.6
2015-Jan-27 08:02 180 1 gusting 2 0.6
2015-Jan-27 07:47 180 0.6
2015-Jan-27 07:32 292 0.6
2015-Jan-27 07:17 180 0.6
2015-Jan-27 07:02 270 0.6
2015-Jan-27 06:47 180 -0.0
2015-Jan-27 05:47 270 0 gusting 1 -0.0
2015-Jan-27 05:32 270 0 gusting 3 -0.0
2015-Jan-27 05:17 270 1 gusting 3 -0.0
2015-Jan-27 05:02 292 0 gusting 2 0.6
2015-Jan-27 04:47 180 0.6
2015-Jan-27 04:32 180 0.6
2015-Jan-27 04:17 158 0.6
2015-Jan-27 04:02 135 -0.0
2015-Jan-27 03:47 090 0 gusting 1 -0.0
2015-Jan-27 03:32 112 0 gusting 1 0.6
2015-Jan-27 03:17 112 0.6
2015-Jan-27 03:02 180 -0.0
2015-Jan-27 02:47 270 -0.0
2015-Jan-27 02:32 180 0.6
2015-Jan-27 02:17 270 -0.0
2015-Jan-27 02:02 270 -0.0
2015-Jan-27 01:47 180 0 gusting 2 -0.0
2015-Jan-27 01:32 180 0 gusting 2 -0.0
2015-Jan-27 01:17 180 0.6
2015-Jan-27 01:02 180 -0.0
2015-Jan-27 00:47 180 -0.0
2015-Jan-27 00:32 338 0 gusting 2 -0.0
2015-Jan-27 00:17 270 2 gusting 3 -0.0
2015-Jan-27 00:02 270 2 gusting 3 -0.0
2015-Jan-26 23:47 270 2 gusting 4 -0.0
2015-Jan-26 23:32 270 2 gusting 4 0.6
2015-Jan-26 23:17 180 1 gusting 4 0.6
2015-Jan-26 23:02 292 2 gusting 2 0.6
2015-Jan-26 22:47 180 0.6
2015-Jan-26 22:32 270 0 gusting 2 0.6
2015-Jan-26 22:17 292 1 gusting 2 0.6
2015-Jan-26 22:02 180 0.6
2015-Jan-26 21:47 270 0.6
2015-Jan-26 21:32 180 1 gusting 3 0.6
2015-Jan-26 21:17 270 1 gusting 3 0.6
2015-Jan-26 21:02 292 1 gusting 2 0.6
2015-Jan-26 20:47 270 0 gusting 1 0.6
2015-Jan-26 20:32 270 0.6
2015-Jan-26 20:17 180 1 gusting 3 0.6
2015-Jan-26 20:02 270 2 gusting 4 0.6
2015-Jan-26 19:47 270 1 gusting 3 0.6
2015-Jan-26 19:32 270 1 gusting 4 0.6
2015-Jan-26 19:17 292 0 gusting 3 0.6
2015-Jan-26 19:02 292 0.6
2015-Jan-26 18:47 180 1 gusting 3 0.6
2015-Jan-26 18:32 270 1 gusting 5 0.6
2015-Jan-26 18:17 270 1 gusting 5 0.6
2015-Jan-26 18:02 270 0 gusting 4 0.6
2015-Jan-26 17:47 292 2 gusting 3 0.6
2015-Jan-26 17:32 315 3 gusting 3 0.6
2015-Jan-26 17:17 292 0 gusting 1 1.1
2015-Jan-26 17:02 270 0.6
2015-Jan-26 16:47 338 0 gusting 3 0.6
2015-Jan-26 16:32 270 0.6
2015-Jan-26 16:17 338 1 gusting 3 0.6
2015-Jan-26 16:02 022 0 gusting 2 0.6
2015-Jan-26 15:47 315 0.6
2015-Jan-26 15:32 0.6
2015-Jan-26 15:17 338 0 gusting 2 0.6
2015-Jan-26 15:02 022 0 gusting 2 0.6
2015-Jan-26 14:47 338 1 gusting 3 1.1
2015-Jan-26 14:32 270 1.1
2015-Jan-26 14:17 045 1 gusting 2 1.1
2015-Jan-26 14:02 338 1.1
2015-Jan-26 13:47 1.7
2015-Jan-26 13:32 022 1.1
2015-Jan-26 13:17 338 0 gusting 2 1.1
2015-Jan-26 13:02 202 1.1
2015-Jan-26 12:47 202 0 gusting 3 1.1
2015-Jan-26 12:32 270 1.1
2015-Jan-26 12:17 135 1.1
2015-Jan-26 12:02 292 1.1
2015-Jan-26 11:47 292 1 gusting 3 1.1
2015-Jan-26 11:32 225 1.1
2015-Jan-26 11:17 292 1.1
2015-Jan-26 11:02 292 0 gusting 2 0.6
2015-Jan-26 10:47 202 1.1
2015-Jan-26 10:32 180 1.1
2015-Jan-26 10:17 225 1.1
2015-Jan-26 10:02 202 0.6
2015-Jan-26 09:47 202 0.6
2015-Jan-26 09:32 292 0.6
2015-Jan-26 09:17 248 0.6
2015-Jan-26 09:02 225 1 gusting 2 0.6
2015-Jan-26 08:47 202 0 gusting 3 0.6
2015-Jan-26 08:32 292 0 gusting 0 0.6
2015-Jan-26 08:17 225 0.6
2015-Jan-26 08:02 225 0 gusting 1 -0.0
2015-Jan-26 07:47 248 0 gusting 3 -0.0
2015-Jan-26 07:32 225 -0.0
2015-Jan-26 07:17 225 -0.0
2015-Jan-26 07:02 225 -0.0
2015-Jan-26 06:47 225 -0.6
2015-Jan-26 05:47 225 0 gusting 1 -0.6
2015-Jan-26 05:32 202 -0.6
2015-Jan-26 05:17 270 -0.6
2015-Jan-26 05:02 225 -0.6
2015-Jan-26 04:47 270 -0.6
2015-Jan-26 04:32 270 0 gusting 3 -0.6
2015-Jan-26 04:17 202 -0.6
2015-Jan-26 04:02 270 0 gusting 2 -0.6
2015-Jan-26 03:47 338 -0.6
2015-Jan-26 03:32 270 -0.6
2015-Jan-26 03:17 292 -0.6
2015-Jan-26 03:02 248 1 gusting 2 -0.6
2015-Jan-26 02:47 292 -0.6
2015-Jan-26 02:32 180 -0.0
2015-Jan-26 02:17 225 -0.6
2015-Jan-26 02:02 248 0 gusting 3 -0.6
2015-Jan-26 01:47 180 0 gusting 3 -0.6
2015-Jan-26 01:32 292 0 gusting 2 -0.6
2015-Jan-26 01:17 180 -0.0
2015-Jan-26 01:02 045 -0.0